Hourly Weather Acaponeta

Today, 24 January, Sunday

Time Temperature Precipitation Wind Pressure Humidity
00:00 +21°C° 0 mm 1 mps 755 mmHg 78%
01:00 +21°C° 0 mm 1 mps 754 mmHg 77%
02:00 +21°C° 0 mm 1 mps 754 mmHg 77%
03:00 +21°C° 0 mm 1 mps 754 mmHg 76%
04:00 +21°C° 0 mm 1 mps 754 mmHg 75%
05:00 +21°C° 0 mm 1 mps 754 mmHg 74%
06:00 +22°C° 0 mm 1 mps 754 mmHg 70%
07:00 +21°C° 0 mm 0 mps 754 mmHg 67%
08:00 +22°C° 0 mm 0 mps 755 mmHg 63%
09:00 +26°C° 0 mm 1 mps 755 mmHg 56%
10:00 +29°C° 0 mm 1 mps 754 mmHg 49%
11:00 +32°C° 0 mm 1 mps 754 mmHg 42%
12:00 +32°C° 0 mm 2 mps 754 mmHg 41%
13:00 +33°C° 0 mm 3 mps 753 mmHg 41%
14:00 +33°C° 0 mm 3 mps 753 mmHg 41%
15:00 +30°C° 0 mm 3 mps 753 mmHg 46%
16:00 +29°C° 0 mm 3 mps 753 mmHg 51%
17:00 +27°C° 0 mm 2 mps 753 mmHg 56%
18:00 +25°C° 0 mm 2 mps 753 mmHg 64%
19:00 +23°C° 0 mm 1 mps 754 mmHg 73%
20:00 +21°C° 0 mm 1 mps 754 mmHg 81%
21:00 +20°C° 0 mm 1 mps 755 mmHg 83%
22:00 +20°C° 0 mm 1 mps 755 mmHg 84%
23:00 +20°C° 0 mm 1 mps 755 mmHg 86%

Tomorrow, 25 January, Monday

Time Temperature Precipitation Wind Pressure Humidity
00:00 +19°C° 0 mm 1 mps 754 mmHg 86%
01:00 +19°C° 0 mm 1 mps 754 mmHg 86%
02:00 +19°C° 0 mm 1 mps 754 mmHg 87%
03:00 +17°C° 0 mm 0 mps 754 mmHg 86%
04:00 +17°C° 0 mm 0 mps 754 mmHg 85%
05:00 +16°C° 0 mm 0 mps 753 mmHg 85%
06:00 +18°C° 0 mm 0 mps 754 mmHg 79%
07:00 +19°C° 0 mm 0 mps 754 mmHg 74%
08:00 +20°C° 0 mm 0 mps 754 mmHg 69%
09:00 +25°C° 0 mm 1 mps 754 mmHg 61%
10:00 +27°C° 0 mm 1 mps 754 mmHg 53%
11:00 +30°C° 0 mm 1 mps 754 mmHg 45%
12:00 +30°C° 0 mm 2 mps 753 mmHg 43%
13:00 +31°C° 0 mm 3 mps 753 mmHg 40%
14:00 +31°C° 0 mm 3 mps 752 mmHg 38%
15:00 +29°C° 0 mm 3 mps 752 mmHg 44%
16:00 +27°C° 0 mm 3 mps 752 mmHg 50%
17:00 +26°C° 0 mm 2 mps 752 mmHg 56%
18:00 +23°C° 0 mm 2 mps 753 mmHg 65%
19:00 +21°C° 0 mm 1 mps 753 mmHg 74%
20:00 +19°C° 0 mm 1 mps 754 mmHg 83%
21:00 +19°C° 0 mm 1 mps 754 mmHg 85%
22:00 +18°C° 0 mm 1 mps 755 mmHg 86%
23:00 +16°C° 0 mm 0 mps 755 mmHg 88%

Day after tomorrow, 26 January, Tuesday

Time Temperature Precipitation Wind Pressure Humidity
00:00 +15°C° 0 mm 0 mps 755 mmHg 88%
01:00 +15°C° 0 mm 0 mps 754 mmHg 89%
02:00 +15°C° 0 mm 0 mps 754 mmHg 89%
03:00 +15°C° 0 mm 0 mps 754 mmHg 89%
04:00 +14°C° 0 mm 0 mps 754 mmHg 88%
05:00 +14°C° 0 mm 0 mps 754 mmHg 88%
06:00 +15°C° 0 mm 0 mps 754 mmHg 82%
07:00 +17°C° 0 mm 0 mps 755 mmHg 76%
08:00 +18°C° 0 mm 0 mps 755 mmHg 71%
09:00 +22°C° 0 mm 1 mps 755 mmHg 61%
10:00 +25°C° 0 mm 1 mps 755 mmHg 52%
11:00 +27°C° 0 mm 2 mps 755 mmHg 42%
12:00 +28°C° 0 mm 2 mps 754 mmHg 40%
13:00 +28°C° 0 mm 2 mps 754 mmHg 38%
14:00 +29°C° 0 mm 3 mps 753 mmHg 36%
15:00 +27°C° 0 mm 3 mps 753 mmHg 41%
16:00 +26°C° 0 mm 2 mps 753 mmHg 46%
17:00 +24°C° 0 mm 2 mps 753 mmHg 52%
18:00 +21°C° 0 mm 2 mps 754 mmHg 60%
19:00 +20°C° 0 mm 1 mps 755 mmHg 68%
20:00 +18°C° 0 mm 1 mps 755 mmHg 76%
21:00 +16°C° 0 mm 1 mps 755 mmHg 75%
22:00 +16°C° 0 mm 1 mps 755 mmHg 75%
23:00 +16°C° 0 mm 1 mps 756 mmHg 75%

27 January, Wednesday

Time Temperature Precipitation Wind Pressure Humidity
00:00 +16°C° 0 mm 1 mps 755 mmHg 73%
01:00 +16°C° 0 mm 1 mps 755 mmHg 71%
02:00 +15°C° 0 mm 1 mps 755 mmHg 69%
03:00 +15°C° 0 mm 1 mps 755 mmHg 66%
04:00 +15°C° 0 mm 1 mps 755 mmHg 63%
05:00 +15°C° 0 mm 1 mps 755 mmHg 60%
06:00 +18°C° 0 mm 1 mps 755 mmHg 54%
07:00 +19°C° 0 mm 1 mps 756 mmHg 49%
08:00 +20°C° 0 mm 1 mps 756 mmHg 43%
09:00 +24°C° 0 mm 1 mps 756 mmHg 36%
10:00 +28°C° 0 mm 1 mps 755 mmHg 29%
11:00 +31°C° 0 mm 1 mps 755 mmHg 22%
12:00 +32°C° 0 mm 2 mps 754 mmHg 22%
13:00 +32°C° 0 mm 2 mps 754 mmHg 22%
14:00 +34°C° 0 mm 3 mps 753 mmHg 23%
15:00 +31°C° 0 mm 2 mps 753 mmHg 28%
16:00 +29°C° 0 mm 2 mps 753 mmHg 33%
17:00 +27°C° 0 mm 2 mps 753 mmHg 39%
18:00 +25°C° 0 mm 1 mps 754 mmHg 44%
19:00 +23°C° 0 mm 1 mps 754 mmHg 50%
20:00 +20°C° 0 mm 1 mps 755 mmHg 55%
21:00 +20°C° 0 mm 1 mps 755 mmHg 55%
22:00 +20°C° 0 mm 1 mps 755 mmHg 54%
23:00 +19°C° 0 mm 1 mps 756 mmHg 54%

28 January, Thursday

Time Temperature Precipitation Wind Pressure Humidity
00:00 +19°C° 0 mm 1 mps 755 mmHg 53%
01:00 +19°C° 0 mm 1 mps 755 mmHg 52%
02:00 +19°C° 0 mm 1 mps 755 mmHg 51%
03:00 +19°C° 0 mm 1 mps 755 mmHg 48%
04:00 +19°C° 0 mm 1 mps 755 mmHg 45%
05:00 +19°C° 0 mm 1 mps 755 mmHg 43%
06:00 +21°C° 0 mm 1 mps 755 mmHg 40%
07:00 +22°C° 0 mm 1 mps 756 mmHg 37%
08:00 +23°C° 0 mm 1 mps 756 mmHg 34%
09:00 +27°C° 0 mm 1 mps 756 mmHg 29%
10:00 +30°C° 0 mm 1 mps 756 mmHg 24%
11:00 +34°C° 0 mm 1 mps 756 mmHg 19%

29 January, Friday

Time Temperature Precipitation Wind Pressure Humidity
Show more